This is the latest recevied weather packets stored in our database for station/object EB1HRW. If no packets are shown the sender has not sent any weather packets the latest 10 day(s).
| Time | Temp. | Humidity | Pressure | Rain* | Wind** | Luminosity | Snow |
|---|---|---|---|---|---|---|---|
| 1787460634 | 15° C | 69% | 1011.9 hPa | 0 mm | - | - | - |
| 1787459735 | 15° C | 68% | 1011.8 hPa | 0 mm | - | - | - |
| 1787458833 | 15° C | 68% | 1011.8 hPa | 0 mm | - | - | - |
| 1787457934 | 15.56° C | 63% | 1011.8 hPa | 0 mm | - | - | - |
| 1787457034 | 15.56° C | 65% | 1011.8 hPa | 0 mm | - | - | - |
| 1787456134 | 15.56° C | 66% | 1011.5 hPa | 0 mm | - | - | - |
| 1787455235 | 16.11° C | 61% | 1011.5 hPa | 0 mm | - | - | - |
| 1787454334 | 16.11° C | 58% | 1011.6 hPa | 0 mm | - | - | - |
| 1787453435 | 16.11° C | 62% | 1011.5 hPa | 0 mm | - | - | - |
| 1787452535 | 16.67° C | 66% | 1011.5 hPa | 0 mm | - | - | - |
| 1787451633 | 16.67° C | 65% | 1011.4 hPa | 0 mm | - | - | - |
| 1787450734 | 17.22° C | 67% | 1011.4 hPa | 0 mm | - | - | - |
| 1787449835 | 18.33° C | 62% | 1011.5 hPa | 0 mm | - | - | - |
| 1787448934 | 18.33° C | 56% | 1011.5 hPa | 0 mm | - | - | - |
| 1787448034 | 17.78° C | 58% | 1011.5 hPa | 0 mm | - | - | - |
| 1787447135 | 18.33° C | 57% | 1011.4 hPa | 0 mm | - | - | - |
| 1787446233 | 18.89° C | 57% | 1011.4 hPa | 0 mm | - | - | - |
| 1787445334 | 19.44° C | 56% | 1011.6 hPa | 0 mm | - | - | - |
| 1787444435 | 19.44° C | 55% | 1011.7 hPa | 0 mm | - | - | - |
| 1787443533 | 19.44° C | 55% | 1011.6 hPa | 0 mm | - | - | - |
| 1787442634 | 19.44° C | 56% | 1011.6 hPa | 0 mm | - | - | - |
| 1787441734 | 19.44° C | 56% | 1011.5 hPa | 0 mm | - | - | - |
| 1787440834 | 20° C | 56% | 1011.3 hPa | 0 mm | - | - | - |
| 1787439935 | 20.56° C | 58% | 1011.2 hPa | 0 mm | - | - | - |
| 1787439034 | 20.56° C | 58% | 1011.2 hPa | 0 mm | - | - | - |
* Rain latest hour (hover to see other rain measurements)
** Current wind speed in m/s (hover to see current wind gust speed)